Weather in Ozhenin

Ukraine / Rovno District     50°26′30″N   26°28′59″E
temp.,
°C
wind,
m/s
gust,
m/s
humid.,
%
clouds,
%
prec.,
mm/h
press.,
hPa
HPBL,
m
31 july, sat
sat3100:00+19ssw47690 0.0 101095
03:00+18sw357011 0.0 101081
06:00+18sw33774 0.0 101044
09:00+23sw35680 0.0 1010401
12:00+28sw454932 0.0 10101279
15:00+30sw563940 0.0 10093068
18:00+29wsw45455 0.0 10081863
21:00+24ssw356298 0.0 100873
1 august, sun
sun100:00+18nw3995100 1.3 1011245
03:00+18ne2395100 2.0 1010100
06:00+18sw1296100 0.6 101141
09:00+20wnw228394 0.6 1011398
12:00+25wsw116350 0.0 10111116
15:00+28sse22537 0.0 10101369
18:00+28s335156 0.0 10081084
21:00+23se3468100 0.0 100650
2 august, mon
mon200:00+22se51171100 0.0 1005207
03:00+20wsw368598 2.4 1006132
06:00+19ssw348462 0.0 100559
09:00+21w577794 0.0 1006497
12:00+25w796239 0.0 10071266
15:00+22wnw9106636 0.0 10091092
18:00+21wnw786030 0.0 10091229
21:00+17wnw48764 0.0 1011216
3 august, tue
tue300:00+15w33885 0.0 101353
03:00+14wsw3793100 0.0 1013142
06:00+13w3897100 0.0 1014182
09:00+18wnw58722 0.0 1015568
12:00+22wnw56515 0.0 10151559
15:00+22wnw5550100 0.0 10151572
18:00+21w365298 0.0 1016843
21:00+19w35620 0.0 1016133
4 august, wed
wed400:00+15wsw12740 0.0 101711
03:00+14ssw227788 0.0 101712
06:00+14s338180 0.0 101732
09:00+19sse4566100 0.0 1017307
12:00+24s465369 0.0 10161131
15:00+27ssw564066 0.0 10142674
18:00+27ssw4644100 0.0 10131329
21:00+18n1275100 4.0 101413